[[[{"header":{"parameterUnit":"kt","parameterCategory":2,"dx":1,"dy":1,"la1":30.253999710083008,"la2":30.299108505249023,"lo1":-89.0895004272461,"lo2":-89.04439544677734,"nx":28,"ny":28,"refTime":"2022-10-15T21:00:00:Z","depth":"0","parameterNumber":2,"parameterNumberName":"U-component_of_CURRENTS"},"data":[-0.044,-0.0612,-0.0642,-0.0849,-0.0909,-0.099,-0.0979,-0.0902,-0.0827,-0.0753,-0.0691,-0.0609,-0.0494,-0.034,-0.013,0.0046,0.002,-0.0007,0.0027,0.0129,0.0163,0.0194,0.0127,-0.0134,-0.0135,-0.0189,-0.0192,-0.0194,-0.0294,-0.0353,-0.0495,-0.0626,-0.073,-0.0701,-0.0718,-0.0698,-0.0674,-0.0633,-0.0588,-0.0401,-0.0131,0.0234,0.054,0.054,0.0697,0.0516,0.0444,0.0495,0.0795,0.0748,0.0616,0.0616,0.0616,0.0617,0.0617,0.0617,-0.0016,-0.0125,-0.0229,-0.0366,-0.0453,-0.051,-0.0556,-0.0537,-0.0535,-0.0474,-0.0395,-0.0306,0.0015,0.0514,0.0741,0.097,0.098,0.0968,0.0855,0.0867,0.0841,0.1153,0.1159,0.116,0.1161,0.1162,0.1162,0,0.0199,0.0177,0.0055,-0.0083,-0.0181,-0.0262,-0.0315,-0.0328,-0.025,-0.0224,-0.018,-0.0107,0.0205,0.0454,0.0817,0.1007,0.1114,0.1244,0.1092,0.0879,0.0815,0.0874,0.125,0.1211,0.1212,0.1213,0.1214,0.1214,0.0487,0.0373,0.0256,0.0171,0.0113,0.0006,-0.006,-0.0009,-0.0022,0.0053,0.0044,0.0211,0.0302,0.0645,0.0932,0.1191,0.1167,0.1267,0.1294,0.111,0.1034,0.1024,0.1041,0.1227,0.1226,0.1224,0.1223,0,0.0644,0.0617,0.0432,0.0348,0.032,0.0207,0.0172,0.0114,0.0175,0.0158,0.0179,0.0353,0.0528,0.0777,0.1011,0.1148,0.124,0.1352,0.1245,0.1284,0.118,0.1075,0.097,0.0981,0.1393,0.1392,0.1392,0,0.0875,0.0729,0.0689,0.0583,0.0425,0.0435,0.0316,0.0309,0.0345,0.0319,0.0479,0.0502,0.0767,0.0903,0.1068,0.1229,0.1247,0.1347,0.14,0.1342,0.1337,0.1251,0.1149,0.1407,0.1407,0.1407,0.1407,0,0.1108,0.0937,0.0778,0.0731,0.0634,0.0572,0.0533,0.0534,0.0509,0.0562,0.059,0.0709,0.0792,0.0924,0.1128,0.1149,0.1284,0.136,0.1402,0.1403,0.1395,0.1394,0.1171,0.1406,0.1406,0.1406,0.1406,0,0.1285,0.1194,0.0976,0.0895,0.0853,0.0746,0.068,0.0609,0.0646,0.0682,0.0756,0.0866,0.0939,0.1034,0.1178,0.1167,0.1253,0.1342,0.1347,0.1373,0.1471,0.1422,0.134,0.1188,0.144,0.144,0.144,0,0.1538,0.1324,0.1328,0.1115,0.1005,0.1044,0.0948,0.0915,0.0932,0.0912,0.1034,0.1037,0.1127,0.1167,0.121,0.134,0.1343,0.1333,0.1489,0.1492,0.1471,0.1397,0.1329,0.1344,0.144,0.144,0.144,0,0.1737,0.1641,0.1604,0.1544,0.1456,0.1369,0.1265,0.1187,0.1154,0.1137,0.1113,0.1129,0.123,0.1246,0.1325,0.1357,0.1349,0.1425,0.1431,0.1422,0.1421,0.1402,0.14,0.1414,0.1414,0.1413,0.1441,0,0.1953,0.1857,0.1778,0.1666,0.16,0.1483,0.146,0.1398,0.1412,0.1405,0.1386,0.1425,0.144,0.1461,0.1487,0.1474,0.1499,0.1568,0.1609,0.1554,0.1575,0.1574,0.1623,0.1625,0.1627,0.1629,0,0,0.218,0.2054,0.2063,0.1951,0.1892,0.1916,0.1785,0.1733,0.1634,0.1624,0.1662,0.1638,0.1656,0.1625,0.1606,0.1612,0.1635,0.1591,0.1584,0.1578,0.1573,0.159,0.1586,0.1633,0.1633,0.1634,0.1635,0,0.2254,0.2238,0.2126,0.207,0.1995,0.196,0.1936,0.1852,0.1827,0.1715,0.178,0.1791,0.1702,0.1727,0.1734,0.1639,0.1696,0.1651,0.1551,0.16,0.1592,0.1585,0.1599,0.1594,0.164,0.164,0.1639,0,0.2414,0.2378,0.2329,0.2227,0.217,0.2059,0.213,0.2025,0.1942,0.2003,0.1867,0.1901,0.1916,0.1838,0.1813,0.1837,0.1751,0.1761,0.1751,0.1728,0.1783,0.1773,0.1764,0.1877,0.1878,0.1878,0,0,0.2473,0.2397,0.2345,0.224,0.2208,0.2158,0.2101,0.2087,0.2029,0.2001,0.197,0.1962,0.1946,0.1917,0.1888,0.1794,0.1832,0.1784,0.1773,0.1763,0.1735,0.1786,0.1776,0.1879,0.1879,0.1879,0,0,0.2493,0.2437,0.2453,0.2334,0.2263,0.2178,0.2098,0.2103,0.2029,0.2044,0.2053,0.2045,0.1978,0.1981,0.1992,0.1916,0.1973,0.1967,0.1881,0.1867,0.1857,0.183,0.2051,0,0,0,0,0,0.2547,0.2448,0.2464,0.2442,0.2301,0.2176,0.2152,0.2122,0.2166,0.2096,0.2085,0.2118,0.2006,0.2014,0.1996,0.1962,0.189,0.1888,0.1886,0.1757,0.1742,0.173,0,0,0,0,0,0,0.2538,0.2512,0.2466,0.2386,0.2354,0.218,0.2245,0.2232,0.2172,0.2175,0.2117,0.2116,0.2114,0.2023,0.2007,0.1975,0.2056,0.1889,0.1888,0.1886,0.1752,0.174,0.173,0,0,0,0,0,0.2531,0.251,0.2304,0.2385,0.2357,0.2296,0.2249,0.2238,0.2182,0.2156,0.2152,0.2168,0.2111,0.2099,0.2014,0.1983,0.2067,0.2061,0.1888,0.1887,0.1886,0.1746,0,0,0,0,0,0,0.2526,0.2477,0.2296,0.2285,0.2432,0.2303,0.2285,0.2244,0.2167,0.216,0.221,0.2214,0.2108,0.21,0.209,0.1986,0.2077,0.207,0.2067,0.1887,0.1886,0.1885,0,0,0,0,0,0,0.2489,0.2468,0.229,0.2351,0.2346,0.231,0.2294,0.2217,0.2169,0.2224,0.2225,0.2214,0.2158,0.2099,0.2092,0.1969,0.2084,0.2078,0.2074,0.2071,0.1886,0.1886,0,0,0,0,0,0,0.2478,0.246,0.2353,0.2349,0.2345,0.2212,0.2243,0.2118,0.2169,0.2229,0.218,0.2185,0.216,0.215,0.2093,0.1972,0.197,0.2084,0.208,0.2077,0.2075,0,0,0,0,0,0,0,0.247,0.261,0.2372,0.2348,0.2344,0.2184,0.218,0.2176,0.217,0.2175,0.2179,0.2183,0.2118,0.2111,0.2105,0.1975,0,0,0.2084,0.2081,0,0,0,0,0,0,0,0,0.2615,0.2611,0.2371,0.237,0.2368,0.2184,0.2181,0.2177,0.2171,0.2174,0.2178,0.2181,0.2116,0.2111,0.2105,0,0,0,0,0,0,0,0,0,0,0,0,0,0,0,0.2371,0.237,0,0.2183,0.2181,0.2178,0.2171,0.2174,0.2177,0.218,0.2115,0.211,0.2106,0,0,0,0,0,0,0,0,0,0,0,0,0,0,0,0,0,0,0,0,0,0,0,0,0,0,0,0,0,0,0,0,0,0,0,0,0,0,0,0,0,0,0,0,0,0,0,0,0,0,0,0,0,0,0,0,0,0,0,0,0,0,0,0,0,0,0,0,0]}],[{"header":{"parameterUnit":"kt","parameterCategory":2,"dx":1,"dy":1,"la1":30.253999710083008,"la2":30.299108505249023,"lo1":-89.0895004272461,"lo2":-89.04439544677734,"nx":28,"ny":28,"refTime":"2022-10-15T21:00:00:Z","depth":"0","parameterNumber":3,"parameterNumberName":"V-component_of_CURRENTS"},"data":[-0.0983,-0.1071,-0.1172,-0.1252,-0.1289,-0.1298,-0.13,-0.1316,-0.1304,-0.1265,-0.1199,-0.1119,-0.0767,-0.008,0.0247,0.0277,0.0447,0.0452,0.0541,0.0313,0.0288,0.0265,0.0309,0.0509,0.0511,0.085,0.0855,0.0858,-0.1028,-0.114,-0.119,-0.1251,-0.1268,-0.1259,-0.1233,-0.1243,-0.122,-0.113,-0.1043,-0.0869,-0.0651,-0.0467,-0.0242,-0.0104,-0.0067,-0.0002,0.0085,0.0124,-0.0246,-0.0222,-0.0131,-0.0131,-0.0131,-0.0131,-0.0131,-0.0131,-0.1149,-0.1175,-0.1235,-0.1275,-0.1268,-0.1255,-0.1241,-0.12,-0.1131,-0.104,-0.092,-0.0838,-0.0636,-0.0555,-0.0506,-0.0377,-0.0367,-0.0354,-0.0241,-0.0213,-0.012,-0.0521,-0.0499,-0.05,-0.05,-0.05,-0.05,0,-0.1256,-0.1283,-0.127,-0.1322,-0.1302,-0.1261,-0.1208,-0.1174,-0.1053,-0.0981,-0.087,-0.0783,-0.0658,-0.0589,-0.0552,-0.0553,-0.0425,-0.0557,-0.0432,-0.0271,-0.0207,-0.0157,-0.0583,-0.0543,-0.0544,-0.0544,-0.0545,-0.0545,-0.1399,-0.1364,-0.1365,-0.1367,-0.1335,-0.1277,-0.1226,-0.1127,-0.1067,-0.0908,-0.087,-0.0755,-0.0668,-0.0601,-0.0585,-0.0581,-0.0485,-0.0571,-0.058,-0.0454,-0.0356,-0.0314,-0.0258,-0.0552,-0.0551,-0.055,-0.0549,0,-0.1486,-0.1478,-0.1404,-0.1351,-0.1336,-0.1278,-0.1183,-0.111,-0.1013,-0.0909,-0.0881,-0.0754,-0.0687,-0.0645,-0.061,-0.0626,-0.053,-0.0621,-0.0591,-0.0604,-0.0493,-0.0393,-0.0251,-0.0177,-0.062,-0.062,-0.0619,0,-0.1592,-0.151,-0.1499,-0.1443,-0.1367,-0.128,-0.1174,-0.1084,-0.0975,-0.0888,-0.0819,-0.0752,-0.0698,-0.0661,-0.0663,-0.0641,-0.0648,-0.0638,-0.0656,-0.0636,-0.0634,-0.0519,-0.0417,-0.0656,-0.0656,-0.0656,-0.0656,0,-0.1673,-0.1571,-0.1501,-0.1455,-0.1326,-0.1269,-0.1196,-0.1053,-0.0976,-0.0864,-0.0818,-0.0741,-0.0706,-0.0701,-0.0671,-0.0679,-0.063,-0.066,-0.0664,-0.0665,-0.0631,-0.0629,-0.0489,-0.0656,-0.0656,-0.0656,-0.0656,0,-0.1699,-0.1661,-0.1558,-0.1442,-0.1403,-0.1317,-0.1163,-0.1069,-0.0938,-0.0883,-0.0816,-0.0774,-0.0702,-0.0728,-0.0676,-0.0681,-0.0694,-0.0678,-0.0679,-0.0653,-0.0693,-0.0678,-0.0651,-0.0529,-0.0715,-0.0715,-0.0715,0,-0.1782,-0.169,-0.1628,-0.1502,-0.1429,-0.1337,-0.1236,-0.1121,-0.1033,-0.0942,-0.0884,-0.0797,-0.0788,-0.0759,-0.0737,-0.0698,-0.0692,-0.0699,-0.0711,-0.071,-0.071,-0.0688,-0.0661,-0.0658,-0.0719,-0.0719,-0.0719,0,-0.1819,-0.1721,-0.1698,-0.164,-0.1501,-0.1438,-0.1327,-0.1194,-0.1126,-0.1032,-0.0952,-0.0829,-0.0829,-0.077,-0.0733,-0.0707,-0.0702,-0.0713,-0.0714,-0.0724,-0.0707,-0.0696,-0.0692,-0.0722,-0.0721,-0.072,-0.0722,0,-0.1789,-0.1741,-0.1724,-0.1602,-0.1538,-0.1473,-0.1357,-0.1291,-0.123,-0.1152,-0.1047,-0.0974,-0.0879,-0.0847,-0.0799,-0.0738,-0.0743,-0.0758,-0.0757,-0.0741,-0.0744,-0.0742,-0.0769,-0.0769,-0.0769,-0.0769,0,0,-0.1814,-0.1761,-0.1716,-0.1653,-0.1595,-0.1522,-0.1447,-0.1375,-0.125,-0.1204,-0.1201,-0.1023,-0.0961,-0.0843,-0.0818,-0.0796,-0.0796,-0.0757,-0.0747,-0.0745,-0.0743,-0.0745,-0.0743,-0.0768,-0.0768,-0.0768,-0.0768,0,-0.1776,-0.1767,-0.1733,-0.1668,-0.1584,-0.1511,-0.1499,-0.1392,-0.1344,-0.1234,-0.1185,-0.1123,-0.0976,-0.0909,-0.0855,-0.0801,-0.0782,-0.0777,-0.0743,-0.0747,-0.0745,-0.0743,-0.0745,-0.0743,-0.0768,-0.0768,-0.0768,0,-0.1744,-0.17,-0.1688,-0.1614,-0.1563,-0.1481,-0.1467,-0.1415,-0.1339,-0.1285,-0.1177,-0.1126,-0.103,-0.0932,-0.0888,-0.0885,-0.078,-0.0788,-0.0787,-0.0762,-0.0765,-0.0763,-0.076,-0.0792,-0.0792,-0.0792,0,0,-0.1708,-0.1686,-0.1597,-0.1598,-0.1567,-0.1485,-0.1453,-0.1405,-0.1329,-0.1299,-0.1217,-0.1135,-0.1051,-0.0998,-0.0919,-0.0829,-0.0824,-0.0792,-0.0791,-0.079,-0.0765,-0.0767,-0.0765,-0.0793,-0.0793,-0.0793,0,0,-0.1687,-0.1601,-0.158,-0.1577,-0.1506,-0.1412,-0.1401,-0.136,-0.1287,-0.1286,-0.1198,-0.1172,-0.1082,-0.1032,-0.1055,-0.0908,-0.0913,-0.0905,-0.0933,-0.093,-0.0929,-0.0918,-0.1007,0,0,0,0,0,-0.1594,-0.1609,-0.1591,-0.1582,-0.15,-0.1422,-0.1406,-0.1353,-0.1351,-0.1331,-0.1258,-0.1221,-0.1026,-0.1043,-0.1017,-0.0977,-0.0805,-0.0803,-0.0801,-0.0815,-0.0814,-0.0812,0,0,0,0,0,0,-0.159,-0.1579,-0.159,-0.1505,-0.1485,-0.1422,-0.1401,-0.1385,-0.1352,-0.1347,-0.1236,-0.1217,-0.1151,-0.1051,-0.1029,-0.0992,-0.1015,-0.0804,-0.0802,-0.0801,-0.0815,-0.0814,-0.0812,0,0,0,0,0,-0.1586,-0.1577,-0.1473,-0.1502,-0.1486,-0.1412,-0.1402,-0.1388,-0.1359,-0.1255,-0.1236,-0.1324,-0.1153,-0.1129,-0.1038,-0.1004,-0.103,-0.1022,-0.0803,-0.0801,-0.08,-0.0814,0,0,0,0,0,0,-0.1583,-0.1549,-0.1467,-0.1458,-0.1512,-0.1413,-0.14,-0.1391,-0.1266,-0.1249,-0.1338,-0.1335,-0.1153,-0.1134,-0.1116,-0.1011,-0.1042,-0.1034,-0.1029,-0.0802,-0.0801,-0.08,0,0,0,0,0,0,-0.1553,-0.1543,-0.1462,-0.1479,-0.1471,-0.1414,-0.1403,-0.1317,-0.1264,-0.1355,-0.135,-0.1338,-0.1173,-0.1138,-0.1124,-0.0992,-0.1051,-0.1043,-0.1038,-0.1035,-0.0801,-0.08,0,0,0,0,0,0,-0.1547,-0.1537,-0.148,-0.1474,-0.1467,-0.136,-0.1334,-0.1249,-0.1301,-0.136,-0.1302,-0.1303,-0.1177,-0.1162,-0.113,-0.1004,-0.0995,-0.1051,-0.1046,-0.1042,-0.1039,0,0,0,0,0,0,0,-0.1542,-0.163,-0.1524,-0.1471,-0.1465,-0.1376,-0.1373,-0.137,-0.1301,-0.1302,-0.1302,-0.1303,-0.1096,-0.1088,-0.1079,-0.1014,0,0,-0.1052,-0.1048,0,0,0,0,0,0,0,0,-0.1631,-0.163,-0.1524,-0.1523,-0.1521,-0.1376,-0.1373,-0.1371,-0.1301,-0.1302,-0.1302,-0.1302,-0.1094,-0.1087,-0.108,0,0,0,0,0,0,0,0,0,0,0,0,0,0,0,-0.1524,-0.1523,0,-0.1375,-0.1373,-0.1371,-0.1301,-0.1302,-0.1302,-0.1302,-0.1092,-0.1086,-0.1081,0,0,0,0,0,0,0,0,0,0,0,0,0,0,0,0,0,0,0,0,0,0,0,0,0,0,0,0,0,0,0,0,0,0,0,0,0,0,0,0,0,0,0,0,0,0,0,0,0,0,0,0,0,0,0,0,0,0,0,0,0,0,0,0,0,0,0,0,0]}]],[[{"header":{"parameterUnit":"kt","parameterCategory":2,"dx":1,"dy":1,"la1":30.253999710083008,"la2":30.299108505249023,"lo1":-89.0895004272461,"lo2":-89.04439544677734,"nx":28,"ny":28,"refTime":"2022-10-15T21:00:00:Z","depth":"2","parameterNumber":2,"parameterNumberName":"U-component_of_CURRENTS"},"data":[0.1319,0.1338,0.1467,0.151,0.153,0.1535,0.1541,0.134,0.114,0.0716,0.0379,0.0198,0.0128,-0.0082,0.0014,-0.001,0.0416,0.0023,0.0635,0.0848,0.0922,0.118,0.0969,0,0,0,0,0,0.1468,0.1533,0.157,0.1644,0.1673,0.1705,0.1737,0.1645,0.1542,0.1324,0.1149,0.0669,0.0433,0.0453,0.0351,0.0424,0.0564,0.0534,0.0666,0.0744,0.0817,0.0636,0.0029,0.0029,0.0029,0.0029,0,0,0.1749,0.1741,0.1796,0.181,0.1822,0.1861,0.1847,0.1825,0.1782,0.1639,0.1656,0.134,0.1242,0.0945,0.1041,0.114,0.1319,0.1351,0.1389,0.1437,0.1274,0.1128,0.0841,0.0845,0.0849,0.0853,0.0856,0,0.1941,0.1999,0.199,0.201,0.2012,0.2008,0.2001,0.1995,0.2038,0.1986,0.1915,0.1844,0.1764,0.1575,0.1591,0.1663,0.2018,0.1859,0.2546,0.1879,0.1747,0.1764,0.18,0.1606,0.1615,0.1622,0.1627,0.163,0.2148,0.214,0.2189,0.217,0.2166,0.2149,0.2136,0.218,0.2167,0.2157,0.2143,0.2163,0.2098,0.2199,0.2211,0.229,0.2585,0.2075,0.2048,0.257,0.2585,0.2591,0.2595,0.1727,0.1715,0.1705,0.1697,0,0.2243,0.2289,0.2253,0.2279,0.2282,0.2257,0.2237,0.223,0.2257,0.2238,0.225,0.2313,0.2368,0.2518,0.2723,0.2733,0.282,0.2794,0.2412,0.2365,0.2649,0.2642,0.2589,0.2579,0.257,0.2563,0.2556,0,0.2349,0.2319,0.2361,0.234,0.2315,0.2321,0.2299,0.2308,0.2331,0.2312,0.2402,0.2396,0.26,0.268,0.2824,0.2823,0.2989,0.2844,0.2849,0.258,0.2531,0.3135,0.3128,0.3191,0.319,0.319,0.319,0,0.2383,0.2385,0.237,0.2361,0.2341,0.2338,0.2333,0.2349,0.2342,0.2405,0.2413,0.2529,0.2582,0.2725,0.2843,0.2873,0.3003,0.3074,0.2886,0.2866,0.2601,0.2551,0.3189,0.3189,0.3189,0.3189,0.3189,0,0.2413,0.2406,0.2394,0.2362,0.2358,0.2353,0.2342,0.235,0.2392,0.242,0.2483,0.2539,0.2635,0.2683,0.2848,0.2818,0.2912,0.2988,0.2993,0.2718,0.2724,0.2422,0.2363,0.3041,0.304,0.3039,0.3038,0,0.243,0.2419,0.2402,0.239,0.237,0.237,0.2369,0.2382,0.241,0.2445,0.2525,0.2581,0.263,0.2679,0.2755,0.2861,0.2919,0.2872,0.3005,0.3007,0.2698,0.2709,0.2376,0.2371,0.3023,0.3025,0.3026,0,0.2421,0.2397,0.2403,0.2386,0.2377,0.2369,0.2385,0.2386,0.2399,0.2465,0.2489,0.2599,0.2644,0.2684,0.2749,0.2817,0.2893,0.2857,0.2862,0.2833,0.3025,0.2727,0.2708,0.2954,0.2956,0.2958,0.3014,0,0.2386,0.2384,0.239,0.2366,0.2367,0.2377,0.2368,0.2399,0.2426,0.2433,0.2518,0.2594,0.2661,0.2717,0.2738,0.2827,0.2828,0.2863,0.2829,0.2892,0.2911,0.292,0.2816,0.2816,0.2816,0.2816,0,0,0.2381,0.2353,0.2343,0.234,0.2333,0.2345,0.2344,0.2358,0.2394,0.2411,0.2437,0.2561,0.2622,0.2688,0.2721,0.2769,0.2798,0.2745,0.2874,0.288,0.2886,0.2906,0.2914,0.2817,0.2817,0.2817,0.2817,0,0.2334,0.2332,0.2332,0.2328,0.2335,0.232,0.2338,0.2341,0.2361,0.241,0.244,0.252,0.2603,0.264,0.2671,0.2761,0.2772,0.281,0.2798,0.2873,0.2879,0.2885,0.2905,0.2912,0.2817,0.2817,0.2817,0,0.2302,0.228,0.2277,0.2264,0.2267,0.2263,0.2263,0.2292,0.2297,0.2329,0.2382,0.244,0.2499,0.2572,0.262,0.261,0.2741,0.2714,0.2717,0.2687,0.2762,0.277,0.2777,0.2674,0.2672,0.2672,0,0,0.2276,0.2267,0.224,0.2251,0.2254,0.225,0.2264,0.227,0.2293,0.2317,0.2354,0.2416,0.247,0.2513,0.2564,0.2641,0.2654,0.2691,0.2698,0.2703,0.2677,0.2752,0.2761,0.2668,0.2668,0.2668,0,0,0.2261,0.2215,0.2212,0.2216,0.2218,0.2195,0.2227,0.2232,0.2284,0.2306,0.2325,0.2341,0.2431,0.2467,0.2413,0.2561,0.2542,0.2554,0.2513,0.2522,0.2529,0.2475,0.2397,0,0,0,0,0,0.2199,0.2212,0.2209,0.2207,0.219,0.2189,0.2192,0.2205,0.2219,0.2246,0.229,0.2295,0.2448,0.2399,0.2413,0.2457,0.2619,0.2628,0.2636,0.2603,0.2613,0.2621,0,0,0,0,0,0,0.2197,0.2191,0.2209,0.218,0.2177,0.2188,0.2174,0.2177,0.2217,0.2222,0.2283,0.2294,0.2301,0.2393,0.2406,0.2447,0.2392,0.2623,0.263,0.2637,0.2607,0.2614,0.2621,0,0,0,0,0,0.2196,0.2191,0.2159,0.2181,0.2179,0.2193,0.2175,0.2178,0.2221,0.2241,0.2253,0.2237,0.2299,0.2314,0.2401,0.2441,0.2384,0.2389,0.2628,0.2633,0.2638,0.261,0,0,0,0,0,0,0.2195,0.2198,0.2159,0.216,0.2189,0.2195,0.2194,0.2178,0.224,0.225,0.2192,0.2194,0.2297,0.231,0.2321,0.2438,0.2377,0.2382,0.2385,0.2632,0.2636,0.264,0,0,0,0,0,0,0.2201,0.2198,0.216,0.2169,0.2171,0.2197,0.2196,0.2242,0.2244,0.2189,0.2191,0.2193,0.2307,0.2306,0.2316,0.2384,0.2371,0.2376,0.2379,0.2381,0.2636,0.2639,0,0,0,0,0,0,0.2201,0.2198,0.2168,0.217,0.2172,0.2182,0.2242,0.2242,0.2198,0.2188,0.22,0.2201,0.2305,0.2313,0.2312,0.2376,0.2382,0.2372,0.2375,0.2377,0.2378,0,0,0,0,0,0,0,0.22,0.2207,0.2154,0.2171,0.2173,0.2168,0.2168,0.2169,0.2198,0.2199,0.22,0.2201,0.2346,0.2351,0.2356,0.2369,0,0,0.2371,0.2373,0,0,0,0,0,0,0,0,0.221,0.2208,0.2154,0.2155,0.2155,0.2168,0.2168,0.2169,0.2198,0.2199,0.22,0.22,0.2347,0.2351,0.2355,0,0,0,0,0,0,0,0,0,0,0,0,0,0,0,0.2154,0.2155,0,0.2168,0.2168,0.2169,0.2198,0.2199,0.2199,0.22,0.2348,0.2351,0.2355,0,0,0,0,0,0,0,0,0,0,0,0,0,0,0,0,0,0,0,0,0,0,0,0,0,0,0,0,0,0,0,0,0,0,0,0,0,0,0,0,0,0,0,0,0,0,0,0,0,0,0,0,0,0,0,0,0,0,0,0,0,0,0,0,0,0,0,0,0]}],[{"header":{"parameterUnit":"kt","parameterCategory":2,"dx":1,"dy":1,"la1":30.253999710083008,"la2":30.299108505249023,"lo1":-89.0895004272461,"lo2":-89.04439544677734,"nx":28,"ny":28,"refTime":"2022-10-15T21:00:00:Z","depth":"2","parameterNumber":3,"parameterNumberName":"V-component_of_CURRENTS"},"data":[-0.1386,-0.1488,-0.1583,-0.1699,-0.1779,-0.1779,-0.1727,-0.1429,-0.1211,-0.0847,-0.0624,-0.0352,0.0053,0.0161,0.0349,0.0437,0.0319,0.0418,0.0474,0.0202,0.0178,0.0287,0.0291,0,0,0,0,0,-0.142,-0.1523,-0.1629,-0.1733,-0.1784,-0.1823,-0.174,-0.1599,-0.1354,-0.1126,-0.0842,-0.042,-0.0018,0.027,0.0473,0.0609,0.0496,0.0581,0.0388,0.0367,0.0348,0.036,0.0556,0.0556,0.0555,0.0555,0,0,-0.1474,-0.1531,-0.1629,-0.1734,-0.1786,-0.1779,-0.176,-0.1632,-0.1485,-0.1207,-0.1018,-0.0616,-0.0298,0.0231,0.0399,0.0485,0.0487,0.0431,0.0414,0.0395,0.042,0.0407,0.0628,0.0628,0.0628,0.0628,0.0628,0,-0.1468,-0.1536,-0.1584,-0.1696,-0.1756,-0.1763,-0.1761,-0.1711,-0.1581,-0.1437,-0.1128,-0.0874,-0.0423,-0.0072,0.0227,0.0339,0.0166,0.0271,0.0132,0.0048,0.0019,0.0034,0.0014,0.0166,0.0164,0.0162,0.0161,0.016,-0.1447,-0.15,-0.1589,-0.1627,-0.1662,-0.1715,-0.1718,-0.1664,-0.1593,-0.1362,-0.1274,-0.1011,-0.0712,-0.0297,-0.0093,0.0137,0.0066,0.0198,0.0152,-0.0015,0.0007,-0.001,-0.0026,0.0132,0.0136,0.0138,0.0141,0,-0.1417,-0.1446,-0.1508,-0.1535,-0.1554,-0.1604,-0.1583,-0.1554,-0.149,-0.1374,-0.1361,-0.1116,-0.0859,-0.0671,-0.0444,-0.0354,-0.0152,-0.007,-0.013,-0.0091,-0.0053,-0.0062,0.0115,0.0122,0.0127,0.0132,0.0136,0,-0.1335,-0.1385,-0.1417,-0.145,-0.1499,-0.146,-0.1478,-0.1431,-0.134,-0.1256,-0.1172,-0.1039,-0.0905,-0.0731,-0.0633,-0.0388,-0.0441,-0.0254,-0.0211,-0.0252,-0.0243,-0.0404,-0.041,-0.0367,-0.0367,-0.0368,-0.0368,0,-0.1254,-0.1288,-0.1349,-0.1351,-0.1319,-0.1345,-0.1332,-0.1241,-0.1198,-0.1121,-0.1084,-0.0957,-0.0902,-0.0801,-0.0639,-0.0681,-0.0434,-0.0462,-0.0273,-0.0264,-0.0235,-0.0224,-0.0369,-0.0369,-0.0369,-0.037,-0.037,0,-0.1164,-0.1185,-0.1251,-0.1237,-0.1243,-0.1256,-0.121,-0.1181,-0.1068,-0.1047,-0.0981,-0.0917,-0.081,-0.0815,-0.0646,-0.0696,-0.0647,-0.0561,-0.0555,-0.0386,-0.0359,-0.0331,-0.0252,-0.0505,-0.0507,-0.0508,-0.0509,0,-0.1083,-0.1138,-0.111,-0.1155,-0.1175,-0.1121,-0.1091,-0.1043,-0.1007,-0.0969,-0.0868,-0.0838,-0.0819,-0.0824,-0.0752,-0.0641,-0.0602,-0.065,-0.0534,-0.0531,-0.0414,-0.0339,-0.0357,-0.0278,-0.0524,-0.0522,-0.0521,0,-0.1013,-0.1019,-0.1042,-0.1061,-0.1038,-0.1031,-0.101,-0.0966,-0.0959,-0.0949,-0.0922,-0.083,-0.0831,-0.078,-0.0722,-0.0658,-0.0625,-0.067,-0.0666,-0.0664,-0.0533,-0.038,-0.0356,-0.0609,-0.0608,-0.0606,-0.0533,0,-0.0934,-0.0964,-0.0983,-0.0991,-0.0978,-0.1,-0.0948,-0.0957,-0.0981,-0.0946,-0.0909,-0.0841,-0.0799,-0.0764,-0.0731,-0.0664,-0.0678,-0.065,-0.0652,-0.0632,-0.0603,-0.0594,-0.0688,-0.0687,-0.0686,-0.0686,0,0,-0.0885,-0.0904,-0.088,-0.0899,-0.0902,-0.0881,-0.0904,-0.0877,-0.088,-0.0871,-0.0914,-0.0827,-0.0796,-0.0689,-0.0688,-0.0666,-0.0657,-0.0714,-0.0642,-0.0637,-0.0633,-0.0604,-0.0596,-0.0685,-0.0684,-0.0684,-0.0684,0,-0.0843,-0.0844,-0.0876,-0.0863,-0.0873,-0.0841,-0.0866,-0.086,-0.0872,-0.0878,-0.0845,-0.0819,-0.0805,-0.0728,-0.0687,-0.0664,-0.0667,-0.0677,-0.0701,-0.0638,-0.0634,-0.0631,-0.0603,-0.0596,-0.0682,-0.0682,-0.0682,0,-0.0797,-0.0789,-0.08,-0.078,-0.0782,-0.0777,-0.0775,-0.0802,-0.0801,-0.0783,-0.0824,-0.0795,-0.0729,-0.0703,-0.0704,-0.0705,-0.0667,-0.0692,-0.0693,-0.0697,-0.0631,-0.0627,-0.0623,-0.0674,-0.0675,-0.0675,0,0,-0.0775,-0.079,-0.0752,-0.0767,-0.0769,-0.076,-0.0767,-0.0777,-0.0769,-0.0784,-0.0794,-0.0782,-0.0735,-0.0742,-0.0708,-0.0695,-0.0664,-0.0695,-0.0695,-0.0696,-0.07,-0.0635,-0.063,-0.0676,-0.0677,-0.0677,0,0,-0.0759,-0.0735,-0.0743,-0.0749,-0.0736,-0.0694,-0.0724,-0.0734,-0.0747,-0.0784,-0.0763,-0.0763,-0.0769,-0.0748,-0.0767,-0.0725,-0.0716,-0.0712,-0.0758,-0.0758,-0.0758,-0.0772,-0.0766,0,0,0,0,0,-0.0718,-0.0729,-0.0737,-0.0735,-0.071,-0.0681,-0.0678,-0.0699,-0.0745,-0.0762,-0.0763,-0.0777,-0.0737,-0.0754,-0.075,-0.0763,-0.0695,-0.0691,-0.0688,-0.0742,-0.0742,-0.0742,0,0,0,0,0,0,-0.0717,-0.0712,-0.0736,-0.0692,-0.0687,-0.068,-0.0693,-0.0697,-0.0744,-0.0754,-0.077,-0.0774,-0.0749,-0.0756,-0.0753,-0.0765,-0.0767,-0.0693,-0.0691,-0.0688,-0.0742,-0.0742,-0.0742,0,0,0,0,0,-0.0716,-0.0712,-0.0677,-0.0692,-0.0687,-0.0704,-0.0696,-0.07,-0.0752,-0.072,-0.0728,-0.0781,-0.0746,-0.0748,-0.0754,-0.0767,-0.0769,-0.0768,-0.0692,-0.0689,-0.0687,-0.0742,0,0,0,0,0,0,-0.0715,-0.0705,-0.0675,-0.0674,-0.0723,-0.0708,-0.0709,-0.0702,-0.0718,-0.0724,-0.0723,-0.0729,-0.0743,-0.0745,-0.0746,-0.0768,-0.0771,-0.077,-0.0769,-0.069,-0.0688,-0.0687,0,0,0,0,0,0,-0.0707,-0.0703,-0.0675,-0.0713,-0.0717,-0.0711,-0.0712,-0.0689,-0.072,-0.072,-0.0725,-0.0726,-0.0761,-0.0743,-0.0744,-0.0705,-0.0772,-0.0771,-0.077,-0.077,-0.0689,-0.0687,0,0,0,0,0,0,-0.0705,-0.0702,-0.0714,-0.0716,-0.0719,-0.0702,-0.0692,-0.0678,-0.0723,-0.072,-0.0731,-0.0735,-0.0759,-0.0759,-0.0742,-0.0702,-0.0704,-0.0772,-0.0771,-0.0771,-0.0771,0,0,0,0,0,0,0,-0.0704,-0.0726,-0.0688,-0.0718,-0.0721,-0.0662,-0.0661,-0.066,-0.0723,-0.0727,-0.073,-0.0733,-0.0779,-0.0778,-0.0776,-0.07,0,0,-0.0772,-0.0772,0,0,0,0,0,0,0,0,-0.0727,-0.0726,-0.0688,-0.0688,-0.0687,-0.0662,-0.0661,-0.066,-0.0724,-0.0727,-0.073,-0.0732,-0.0778,-0.0777,-0.0776,0,0,0,0,0,0,0,0,0,0,0,0,0,0,0,-0.0688,-0.0688,0,-0.0661,-0.0661,-0.066,-0.0724,-0.0727,-0.0729,-0.0731,-0.0778,-0.0777,-0.0777,0,0,0,0,0,0,0,0,0,0,0,0,0,0,0,0,0,0,0,0,0,0,0,0,0,0,0,0,0,0,0,0,0,0,0,0,0,0,0,0,0,0,0,0,0,0,0,0,0,0,0,0,0,0,0,0,0,0,0,0,0,0,0,0,0,0,0,0,0]}]],[[{"header":{"parameterUnit":"kt","parameterCategory":2,"dx":1,"dy":1,"la1":30.253999710083008,"la2":30.299108505249023,"lo1":-89.0895004272461,"lo2":-89.04439544677734,"nx":28,"ny":28,"refTime":"2022-10-15T21:00:00:Z","depth":"4","parameterNumber":2,"parameterNumberName":"U-component_of_CURRENTS"},"data":[-0.0598,-0.0586,-0.0577,-0.0529,-0.0508,-0.056,-0.0592,-0.0618,-0.0579,-0.0589,-0.0589,-0.0628,-0.0634,-0.0668,-0.0637,-0.0643,-0.0895,-0.0707,-0.0705,-0.1201,-0.1234,-0.1264,-0.1079,0,0,0,0,0,-0.0623,-0.0586,-0.0602,-0.0535,-0.06,-0.0603,-0.0646,-0.0673,-0.0676,-0.0666,-0.0684,-0.0671,-0.066,-0.0689,-0.065,-0.073,-0.0971,-0.0682,-0.1102,-0.1222,-0.1258,-0.1067,0,0,0,0,0,0,-0.0654,-0.0643,-0.0597,-0.0559,-0.0593,-0.0602,-0.063,-0.0629,-0.0692,-0.0769,-0.0725,-0.0793,-0.0877,-0.0863,-0.0863,-0.0876,-0.0963,-0.1056,-0.1099,-0.1134,-0.0952,-0.0609,-0.0592,0,0,0,0,0,-0.0635,-0.0611,-0.06,-0.0559,-0.0536,-0.0599,-0.0582,-0.0625,-0.067,-0.081,-0.0816,-0.0848,-0.093,-0.1025,-0.1024,-0.1109,-0.1438,-0.1347,-0.1372,-0.147,-0.1244,-0.1262,-0.1258,-0.1396,-0.1401,-0.1404,-0.1406,0,-0.0637,-0.0597,-0.0559,-0.0548,-0.05,-0.0475,-0.051,-0.0567,-0.0641,-0.0782,-0.0855,-0.0963,-0.1015,-0.117,-0.1298,-0.1393,-0.1386,-0.1439,-0.1542,-0.13,-0.1313,-0.1299,-0.1284,-0.1435,-0.1433,-0.143,-0.1428,0,-0.0634,-0.0604,-0.0573,-0.0522,-0.0502,-0.0468,-0.052,-0.0614,-0.0673,-0.0832,-0.0848,-0.102,-0.1092,-0.1273,-0.156,-0.1553,-0.1676,-0.1618,-0.1666,-0.1695,-0.1352,-0.1324,-0.1483,-0.1472,-0.1463,-0.1456,-0.1449,0,-0.0656,-0.0632,-0.0594,-0.056,-0.053,-0.05,-0.0533,-0.0552,-0.0697,-0.0813,-0.0887,-0.0992,-0.125,-0.1393,-0.1444,-0.1484,-0.1738,-0.155,-0.1577,-0.1796,-0.1768,-0.1951,-0.1938,-0.2058,-0.2057,-0.2056,-0.2056,0,-0.0721,-0.0687,-0.0633,-0.061,-0.06,-0.0551,-0.0532,-0.0619,-0.0694,-0.0804,-0.0879,-0.1073,-0.1181,-0.1343,-0.1379,-0.1373,-0.1699,-0.1807,-0.1565,-0.1536,-0.1941,-0.1929,-0.2055,-0.2054,-0.2054,-0.2054,-0.2054,0,-0.0766,-0.0764,-0.0695,-0.0694,-0.0685,-0.0623,-0.0643,-0.0628,-0.0772,-0.076,-0.0861,-0.0935,-0.1117,-0.104,-0.1351,-0.121,-0.1265,-0.1404,-0.1416,-0.1238,-0.1208,-0.1441,-0.1458,-0.1453,-0.1449,-0.1445,-0.1442,0,-0.0812,-0.0799,-0.0793,-0.0737,-0.0711,-0.07,-0.0674,-0.069,-0.0668,-0.0726,-0.0859,-0.0915,-0.0823,-0.0827,-0.0957,-0.1165,-0.1242,-0.11,-0.1487,-0.1497,-0.1166,-0.113,-0.1268,-0.1383,-0.1391,-0.1396,-0.14,0,-0.085,-0.0872,-0.0861,-0.0846,-0.0803,-0.0811,-0.0751,-0.0758,-0.0803,-0.0681,-0.0754,-0.0775,-0.0804,-0.089,-0.0956,-0.1105,-0.1152,-0.1057,-0.1074,-0.1063,-0.145,-0.1097,-0.1096,-0.1229,-0.1237,-0.1243,-0.1359,0,-0.0872,-0.0863,-0.088,-0.0862,-0.0864,-0.0844,-0.0821,-0.078,-0.0691,-0.0692,-0.0735,-0.079,-0.0876,-0.087,-0.0869,-0.1038,-0.0978,-0.1094,-0.1184,-0.1181,-0.1216,-0.1247,-0.0956,-0.0961,-0.0965,-0.0968,0,0,-0.0865,-0.0869,-0.0926,-0.0923,-0.0912,-0.0944,-0.0906,-0.0907,-0.0862,-0.0876,-0.0767,-0.0859,-0.0916,-0.1097,-0.1007,-0.1035,-0.1071,-0.098,-0.115,-0.1167,-0.1186,-0.1221,-0.1246,-0.0975,-0.0976,-0.0977,-0.0979,0,-0.0862,-0.0893,-0.0908,-0.0919,-0.0951,-0.0952,-0.0955,-0.0933,-0.0923,-0.0832,-0.091,-0.0966,-0.0903,-0.1043,-0.1105,-0.1063,-0.1139,-0.1001,-0.0947,-0.1172,-0.1184,-0.1198,-0.1232,-0.1252,-0.0988,-0.0987,-0.0987,0,-0.0837,-0.0867,-0.088,-0.092,-0.0958,-0.0944,-0.0998,-0.1025,-0.0992,-0.1066,-0.0985,-0.1018,-0.1136,-0.1111,-0.1122,-0.1161,-0.1228,-0.1153,-0.1138,-0.121,-0.1453,-0.1465,-0.1476,-0.1343,-0.1343,-0.1343,0,0,-0.0828,-0.0856,-0.0881,-0.0917,-0.0931,-0.0974,-0.1006,-0.1014,-0.1043,-0.1062,-0.1047,-0.1087,-0.1144,-0.1158,-0.1197,-0.119,-0.1336,-0.1183,-0.1167,-0.1152,-0.1213,-0.1451,-0.1462,-0.1343,-0.1343,-0.1343,0,0,-0.083,-0.086,-0.0868,-0.0897,-0.0936,-0.0986,-0.1029,-0.1044,-0.1077,-0.1067,-0.1122,-0.1134,-0.1132,-0.1206,-0.1192,-0.1202,-0.1291,-0.1294,-0.1096,-0.1077,-0.1061,-0.1115,-0.1251,0,0,0,0,0,-0.083,-0.0849,-0.0855,-0.0865,-0.0924,-0.0971,-0.0984,-0.104,-0.1051,-0.1077,-0.109,-0.114,-0.1208,-0.1196,-0.1209,-0.1156,-0.1338,-0.1339,-0.134,-0.1088,-0.1067,-0.1049,0,0,0,0,0,0,-0.0834,-0.0842,-0.0856,-0.0899,-0.0914,-0.097,-0.099,-0.1005,-0.1051,-0.1059,-0.1129,-0.1141,-0.1172,-0.1195,-0.1205,-0.1153,-0.1248,-0.1339,-0.1339,-0.134,-0.1081,-0.1064,-0.1049,0,0,0,0,0,-0.0838,-0.0844,-0.092,-0.0901,-0.0914,-0.0988,-0.0991,-0.1004,-0.1043,-0.11,-0.1114,-0.1087,-0.117,-0.1183,-0.1201,-0.1146,-0.1242,-0.1245,-0.1339,-0.134,-0.134,-0.1072,0,0,0,0,0,0,-0.084,-0.0858,-0.0924,-0.0932,-0.0908,-0.0988,-0.1,-0.1002,-0.1083,-0.1097,-0.1059,-0.1063,-0.1169,-0.1179,-0.1188,-0.1138,-0.1236,-0.124,-0.1242,-0.134,-0.134,-0.134,0,0,0,0,0,0,-0.0855,-0.0863,-0.0928,-0.0934,-0.0943,-0.0988,-0.0998,-0.1031,-0.1083,-0.1037,-0.1043,-0.106,-0.1158,-0.1176,-0.1184,-0.1233,-0.1232,-0.1236,-0.1238,-0.124,-0.134,-0.134,0,0,0,0,0,0,-0.086,-0.0867,-0.0932,-0.0939,-0.0946,-0.1033,-0.102,-0.1078,-0.1086,-0.1032,-0.1089,-0.109,-0.1155,-0.1163,-0.118,-0.1226,-0.1231,-0.1232,-0.1235,-0.1236,-0.1237,0,0,0,0,0,0,0,-0.0864,-0.0797,-0.0883,-0.0943,-0.0949,-0.1002,-0.1004,-0.1006,-0.1086,-0.1087,-0.1088,-0.109,-0.1212,-0.1216,-0.122,-0.122,0,0,-0.1232,-0.1234,0,0,0,0,0,0,0,0,-0.0797,-0.0797,-0.0883,-0.0885,-0.0887,-0.1002,-0.1004,-0.1005,-0.1086,-0.1087,-0.1088,-0.1089,-0.1213,-0.1216,-0.122,0,0,0,0,0,0,0,0,0,0,0,0,0,0,0,-0.0883,-0.0885,0,-0.1003,-0.1004,-0.1005,-0.1086,-0.1087,-0.1088,-0.1089,-0.1214,-0.1217,-0.1219,0,0,0,0,0,0,0,0,0,0,0,0,0,0,0,0,0,0,0,0,0,0,0,0,0,0,0,0,0,0,0,0,0,0,0,0,0,0,0,0,0,0,0,0,0,0,0,0,0,0,0,0,0,0,0,0,0,0,0,0,0,0,0,0,0,0,0,0,0]}],[{"header":{"parameterUnit":"kt","parameterCategory":2,"dx":1,"dy":1,"la1":30.253999710083008,"la2":30.299108505249023,"lo1":-89.0895004272461,"lo2":-89.04439544677734,"nx":28,"ny":28,"refTime":"2022-10-15T21:00:00:Z","depth":"4","parameterNumber":3,"parameterNumberName":"V-component_of_CURRENTS"},"data":[0.0234,0.0227,0.0261,0.0226,0.0253,0.0185,0.0117,-0.0033,-0.014,-0.028,-0.026,-0.0304,-0.0272,-0.0347,-0.0251,-0.0251,-0.0125,-0.0284,-0.0282,-0.0094,-0.009,-0.0086,-0.0209,0,0,0,0,0,0.0317,0.0317,0.0305,0.0316,0.0319,0.0342,0.015,0.0057,-0.0136,-0.0296,-0.0308,-0.0403,-0.0363,-0.0389,-0.03,-0.0384,-0.0224,-0.028,-0.0117,-0.0091,-0.0087,-0.0208,0,0,0,0,0,0,0.0427,0.0408,0.0453,0.0477,0.0463,0.0367,0.0315,0.0118,-0.0014,-0.0282,-0.0362,-0.0426,-0.0472,-0.0399,-0.0414,-0.0346,-0.0225,-0.0135,-0.0128,-0.0123,-0.0225,-0.0189,-0.0209,0,0,0,0,0,0.0485,0.0583,0.055,0.0587,0.0584,0.0482,0.0393,0.0276,0.0073,-0.0017,-0.0254,-0.0287,-0.0404,-0.0391,-0.0357,-0.0294,-0.0244,-0.022,-0.0212,-0.0122,-0.0081,-0.0076,-0.0076,-0.0069,-0.0068,-0.0068,-0.0067,0,0.0583,0.0602,0.0631,0.0623,0.0649,0.0639,0.0565,0.0475,0.0292,0.0046,-0.0129,-0.0214,-0.0343,-0.038,-0.0397,-0.029,-0.0271,-0.0211,-0.0117,-0.0074,-0.007,-0.0071,-0.0071,-0.0063,-0.0064,-0.0064,-0.0064,0,0.0596,0.0635,0.0609,0.0576,0.0582,0.0576,0.0488,0.0365,0.0315,0.0084,0.0074,-0.0131,-0.0199,-0.0273,-0.0273,-0.0244,-0.024,-0.0214,-0.0183,-0.018,-0.0063,-0.0066,-0.0057,-0.0059,-0.006,-0.0061,-0.0062,0,0.0582,0.0583,0.0607,0.0595,0.0544,0.0488,0.0421,0.034,0.0202,0.0018,-0.0013,-0.017,-0.017,-0.0275,-0.0209,-0.0208,-0.0218,-0.0122,-0.0118,-0.0105,-0.0105,-0.0109,-0.011,-0.0109,-0.0111,-0.0112,-0.0113,0,0.0583,0.0546,0.0551,0.0518,0.0394,0.0401,0.0354,0.0197,0.0088,0.0003,-0.0071,-0.017,-0.0187,-0.0158,-0.0186,-0.0134,-0.0222,-0.0163,-0.0126,-0.0124,-0.0116,-0.0116,-0.0114,-0.0114,-0.0115,-0.0115,-0.0115,0,0.0549,0.053,0.0532,0.0412,0.0399,0.0382,0.0231,0.0154,-0.0008,-0.0036,-0.0108,-0.0169,-0.0244,-0.017,-0.0208,-0.0207,-0.0122,-0.013,-0.0126,-0.0189,-0.0181,-0.0011,-0.0032,-0.0032,-0.0033,-0.0033,-0.0033,0,0.0507,0.0518,0.0489,0.0446,0.0414,0.0353,0.0256,0.0165,0.0105,0.0007,-0.0068,-0.0147,-0.012,-0.0114,-0.0147,-0.0207,-0.0165,-0.0196,-0.0128,-0.0125,-0.0147,-0.0186,-0.0191,-0.0039,-0.0038,-0.0037,-0.0037,0,0.047,0.0463,0.0489,0.0462,0.0423,0.0385,0.0319,0.0209,0.0156,0.0142,0.0047,-0.0083,-0.0057,-0.0133,-0.0189,-0.0211,-0.0166,-0.015,-0.0152,-0.0053,-0.0124,-0.018,-0.0181,-0.0186,-0.0187,-0.0187,-0.0041,0,0.0411,0.0422,0.0449,0.0433,0.0395,0.041,0.0335,0.0319,0.0343,0.028,0.018,0.01,-0.0001,-0.0046,-0.0082,-0.0174,-0.0111,-0.015,-0.0114,-0.0154,-0.008,-0.0078,-0.0113,-0.0113,-0.0113,-0.0113,0,0,0.0383,0.0388,0.0388,0.0395,0.0371,0.0389,0.0377,0.0338,0.0311,0.0272,0.0347,0.0152,0.0103,-0.0087,-0.0097,-0.0135,-0.009,-0.0079,-0.0144,-0.0147,-0.0151,-0.0083,-0.008,-0.0113,-0.0113,-0.0113,-0.0113,0,0.0354,0.0359,0.0388,0.0361,0.0391,0.0347,0.038,0.037,0.0375,0.0328,0.0282,0.0228,0.0133,0.0021,-0.0046,-0.0125,-0.0073,-0.0125,-0.0116,-0.0144,-0.0147,-0.015,-0.0084,-0.0081,-0.0114,-0.0114,-0.0114,0,0.0307,0.031,0.0313,0.0288,0.0303,0.0268,0.0301,0.0351,0.0315,0.0299,0.0278,0.0229,0.0122,0.0035,0.0014,0.0031,-0.0039,-0.0046,-0.0048,-0.0044,-0.0071,-0.0076,-0.008,-0.0021,-0.002,-0.0019,0,0,0.0294,0.0309,0.0263,0.0277,0.0283,0.028,0.0285,0.0312,0.0296,0.0311,0.0282,0.0243,0.0146,0.0137,0.0057,-0.0007,0.0006,-0.0032,-0.0036,-0.0039,-0.0036,-0.0065,-0.007,-0.0017,-0.0017,-0.0017,0,0,0.0288,0.0265,0.0274,0.027,0.0253,0.0213,0.0248,0.0262,0.0259,0.0321,0.0264,0.0256,0.0207,0.0177,0.0214,0.0083,0.0096,0.0086,0.0118,0.0112,0.0108,0.013,0.0211,0,0,0,0,0,0.0257,0.0256,0.0265,0.0262,0.0229,0.0192,0.0187,0.022,0.0294,0.0305,0.029,0.0302,0.017,0.0201,0.0185,0.0166,0.0015,0.001,0.0004,0.0027,0.0021,0.0016,0,0,0,0,0,0,0.0255,0.025,0.0264,0.0222,0.0216,0.0192,0.0229,0.0235,0.0294,0.0309,0.0298,0.0297,0.0249,0.0209,0.0194,0.0177,0.0216,0.0013,0.0008,0.0004,0.0025,0.002,0.0016,0,0,0,0,0,0.0254,0.025,0.0205,0.0222,0.0216,0.0242,0.0234,0.024,0.0306,0.0237,0.0243,0.0349,0.0245,0.0237,0.02,0.0184,0.0226,0.0221,0.001,0.0006,0.0003,0.0022,0,0,0,0,0,0,0.0253,0.0237,0.0203,0.0201,0.0272,0.0247,0.0249,0.0243,0.0234,0.0238,0.0275,0.0285,0.0241,0.0236,0.0229,0.0188,0.0234,0.0229,0.0225,0.0007,0.0004,0.0001,0,0,0,0,0,0,0.0239,0.0235,0.0202,0.0263,0.0268,0.0251,0.0253,0.0181,0.0233,0.0272,0.028,0.028,0.0263,0.0234,0.0229,0.0112,0.024,0.0235,0.0232,0.0229,0.0005,0.0002,0,0,0,0,0,0,0.0237,0.0233,0.0264,0.0267,0.0272,0.0243,0.0187,0.0159,0.0275,0.0271,0.0288,0.0295,0.026,0.0255,0.0229,0.0114,0.0113,0.024,0.0237,0.0234,0.0232,0,0,0,0,0,0,0,0.0235,0.0267,0.0224,0.0271,0.0275,0.0179,0.0178,0.0177,0.0276,0.0282,0.0287,0.0292,0.027,0.0264,0.0259,0.0115,0,0,0.0241,0.0238,0,0,0,0,0,0,0,0,0.0268,0.0267,0.0223,0.0223,0.0223,0.0179,0.0178,0.0177,0.0277,0.0281,0.0286,0.029,0.0269,0.0264,0.0259,0,0,0,0,0,0,0,0,0,0,0,0,0,0,0,0.0223,0.0223,0,0.0179,0.0178,0.0177,0.0278,0.0281,0.0285,0.0288,0.0267,0.0264,0.026,0,0,0,0,0,0,0,0,0,0,0,0,0,0,0,0,0,0,0,0,0,0,0,0,0,0,0,0,0,0,0,0,0,0,0,0,0,0,0,0,0,0,0,0,0,0,0,0,0,0,0,0,0,0,0,0,0,0,0,0,0,0,0,0,0,0,0,0,0]}]]]